[[{"header":{"parameterUnit":"m.s-1","parameterCategory":1,"la1":30.2991,"la2":30.254,"lo1":-89.0895,"lo2":-89.0444,"dy":0.0017,"dx":0.0017,"nx":28,"ny":28,"refTime":"2026-01-10T03:00:00:Z","depth":0,"parameterNumber":2,"parameterNumberName":"U-component_of_WINDS"},"data":[0,0,0,0,0,0,0,0,0,0,0,0,0,0,0,0,0,0,0,0,0,0,0,0,0,0,0,0,0,0,0,0,0,0,0,0,0,0,0,0,0,0,0,0,0,0,0,0,0,0,0,0,0,0,0,0,0,0,-0.1327,-0.1327,0,-0.1371,-0.1371,-0.1372,-0.1366,-0.1365,-0.1364,-0.1363,-0.1411,-0.1413,-0.1415,0,0,0,0,0,0,0,0,0,0,0,0,0,-0.1239,-0.1241,-0.1327,-0.1327,-0.1328,-0.1371,-0.1371,-0.1372,-0.1366,-0.1365,-0.1364,-0.1363,-0.1411,-0.1413,-0.1415,0,0,0,0,0,0,0,0,0,0,0,0,0,-0.128,-0.1241,-0.1327,-0.133,-0.1331,-0.137,-0.1371,-0.1372,-0.1366,-0.1365,-0.1364,-0.1363,-0.141,-0.1413,-0.1416,-0.1456,0,0,-0.1425,-0.1426,0,0,0,0,0,0,0,0,-0.1277,-0.1283,-0.1329,-0.133,-0.1331,-0.1361,-0.1358,-0.14,-0.1366,-0.1353,-0.1363,-0.1362,-0.1396,-0.14,-0.1411,-0.1458,-0.146,-0.1425,-0.1427,-0.1428,-0.1429,0,0,0,0,0,0,0,-0.1274,-0.1281,-0.1344,-0.1329,-0.1331,-0.133,-0.1334,-0.1366,-0.138,-0.1354,-0.1353,-0.1359,-0.1396,-0.1408,-0.1412,-0.1461,-0.1425,-0.1427,-0.1429,-0.143,-0.1543,-0.1544,0,0,0,0,0,0,-0.127,-0.1279,-0.1343,-0.1345,-0.1301,-0.1332,-0.1337,-0.1353,-0.138,-0.1383,-0.1359,-0.1358,-0.1403,-0.1408,-0.1413,-0.1462,-0.1428,-0.1431,-0.1432,-0.1542,-0.1544,-0.1545,0,0,0,0,0,0,-0.1269,-0.1276,-0.1341,-0.1312,-0.132,-0.1335,-0.1352,-0.1354,-0.1366,-0.1384,-0.1387,-0.1369,-0.1403,-0.1409,-0.1445,-0.1464,-0.1432,-0.1435,-0.1541,-0.1542,-0.1544,-0.1561,0,0,0,0,0,0,-0.1266,-0.1276,-0.1291,-0.1312,-0.1322,-0.1372,-0.1353,-0.1356,-0.1371,-0.1369,-0.1393,-0.1396,-0.1402,-0.1441,-0.1448,-0.1467,-0.1437,-0.1539,-0.1541,-0.1544,-0.1559,-0.1563,-0.1566,0,0,0,0,0,-0.1263,-0.1294,-0.1292,-0.1299,-0.1341,-0.1373,-0.1378,-0.1384,-0.1372,-0.1388,-0.1399,-0.1395,-0.146,-0.1444,-0.1453,-0.1473,-0.1538,-0.1541,-0.1543,-0.1557,-0.1562,-0.1566,0,0,0,0,0,0,-0.1276,-0.1297,-0.1295,-0.1334,-0.1351,-0.1372,-0.1392,-0.1389,-0.1411,-0.1409,-0.1416,-0.1421,-0.1458,-0.1469,-0.1451,-0.1513,-0.1498,-0.1502,-0.1505,-0.151,-0.1514,-0.1511,-0.1439,0,0,0,0,0,-0.1283,-0.1307,-0.1324,-0.1357,-0.1366,-0.1377,-0.1391,-0.1394,-0.1413,-0.142,-0.1434,-0.1454,-0.1478,-0.1495,-0.1518,-0.1559,-0.1565,-0.1578,-0.1581,-0.1585,-0.1589,-0.1612,-0.1618,-0.1554,-0.1554,-0.1554,0,0,-0.1299,-0.1313,-0.1328,-0.136,-0.1374,-0.1399,-0.1384,-0.141,-0.1429,-0.1425,-0.146,-0.147,-0.1492,-0.1531,-0.1548,-0.1541,-0.1607,-0.1588,-0.1591,-0.1593,-0.1615,-0.1621,-0.1626,-0.1556,-0.1556,-0.1555,0,0,-0.134,-0.1353,-0.1382,-0.1395,-0.1416,-0.1423,-0.143,-0.1451,-0.1457,-0.1492,-0.1489,-0.1511,-0.1554,-0.1569,-0.1583,-0.1628,-0.1626,-0.1635,-0.1657,-0.1679,-0.1684,-0.1689,-0.1705,-0.1711,-0.1639,-0.1639,-0.1639,0,-0.1357,-0.1394,-0.1397,-0.1424,-0.1438,-0.1434,-0.1463,-0.1477,-0.1505,-0.1515,-0.1506,-0.1558,-0.1573,-0.1615,-0.1626,-0.1637,-0.1645,-0.1634,-0.1683,-0.1687,-0.1692,-0.1708,-0.1714,-0.1641,-0.164,-0.164,-0.164,0,-0.1414,-0.1439,-0.146,-0.1486,-0.1502,-0.153,-0.1538,-0.1554,-0.1555,-0.1563,-0.1598,-0.1615,-0.1642,-0.1652,-0.1653,-0.1694,-0.1689,-0.1681,-0.1666,-0.1699,-0.1714,-0.172,-0.1642,-0.1642,-0.1641,-0.1641,0,0,-0.1466,-0.1492,-0.15,-0.1512,-0.1533,-0.1553,-0.1581,-0.1606,-0.162,-0.1639,-0.1663,-0.1698,-0.1691,-0.1706,-0.1709,-0.1728,-0.1763,-0.1718,-0.1719,-0.1726,-0.181,-0.1816,-0.1823,-0.1761,-0.1762,-0.1763,-0.1808,0,-0.151,-0.1559,-0.1562,-0.1606,-0.1629,-0.1625,-0.1649,-0.1665,-0.1673,-0.1694,-0.1703,-0.1728,-0.1716,-0.1726,-0.1744,-0.1755,-0.178,-0.1751,-0.1784,-0.1785,-0.178,-0.1831,-0.1838,-0.188,-0.1814,-0.1815,-0.1816,0,-0.1569,-0.1588,-0.1634,-0.1652,-0.1662,-0.1684,-0.1707,-0.1727,-0.1745,-0.1749,-0.1765,-0.1765,-0.1794,-0.1776,-0.1816,-0.1797,-0.181,-0.1817,-0.1819,-0.1823,-0.1803,-0.1838,-0.1893,-0.19,-0.1825,-0.1824,-0.1824,0,-0.1603,-0.1641,-0.1673,-0.1683,-0.1705,-0.172,-0.173,-0.1747,-0.1761,-0.1781,-0.1791,-0.1814,-0.1828,-0.1846,-0.1852,-0.1838,-0.1892,-0.1875,-0.1897,-0.1897,-0.191,-0.1909,-0.197,-0.1916,-0.1916,-0.1916,-0.1916,0,-0.1653,-0.1681,-0.1689,-0.1709,-0.1741,-0.1744,-0.1775,-0.1784,-0.1799,-0.1821,-0.1818,-0.1839,-0.1846,-0.1868,-0.1873,-0.1905,-0.1911,-0.1916,-0.1917,-0.1917,-0.1916,-0.1927,-0.1924,-0.1918,-0.1918,-0.1917,-0.1917,0,-0.1698,-0.1704,-0.1739,-0.1755,-0.176,-0.1783,-0.1798,-0.1817,-0.1824,-0.1852,-0.1858,-0.1869,-0.1895,-0.1902,-0.1933,-0.1937,-0.1975,-0.1973,-0.1969,-0.1969,-0.1992,-0.199,-0.2062,-0.2072,-0.2011,-0.2011,-0.2012,0,-0.1729,-0.1751,-0.177,-0.1784,-0.1794,-0.1817,-0.1831,-0.1835,-0.185,-0.1872,-0.1889,-0.1913,-0.1934,-0.1975,-0.1986,-0.201,-0.2009,-0.2032,-0.2013,-0.2012,-0.201,-0.201,-0.2012,-0.2037,-0.2038,-0.2038,-0.2038,0,-0.1786,-0.1787,-0.1808,-0.1829,-0.1846,-0.1864,-0.1881,-0.1892,-0.1898,-0.1916,-0.1941,-0.1957,-0.1988,-0.2013,-0.2036,-0.2047,-0.2044,-0.2044,-0.2051,-0.2052,-0.2048,-0.2051,-0.198,-0.2043,-0.2043,-0.2042,-0.2042,-0.2042,-0.1826,-0.1845,-0.186,-0.1883,-0.1896,-0.1911,-0.193,-0.1938,-0.1959,-0.1984,-0.1985,-0.2013,-0.203,-0.2061,-0.2073,-0.2095,-0.2088,-0.2098,-0.21,-0.2103,-0.2105,-0.2043,-0.2099,-0.2099,-0.2099,-0.2099,-0.2099,0,-0.1882,-0.1892,-0.1913,-0.1936,-0.1954,-0.1947,-0.1965,-0.1981,-0.2005,-0.2021,-0.204,-0.207,-0.2093,-0.2106,-0.2129,-0.2145,-0.2144,-0.2151,-0.2151,-0.2153,-0.2109,-0.2102,-0.2151,-0.2151,-0.2151,-0.2151,-0.2151,-0.2151,-0.1914,-0.1946,-0.1949,-0.1987,-0.1996,-0.2023,-0.2034,-0.2048,-0.206,-0.2093,-0.2112,-0.2119,-0.2133,-0.2158,-0.218,-0.2183,-0.2192,-0.22,-0.2202,-0.2162,-0.2156,-0.2151,-0.2144,-0.2202,-0.2202,-0.2244,-0.2245,-0.2245]},{"header":{"parameterUnit":"m.s-1","parameterCategory":1,"la1":30.2991,"la2":30.254,"lo1":-89.0895,"lo2":-89.0444,"dy":0.0017,"dx":0.0017,"nx":28,"ny":28,"refTime":"2026-01-10T03:00:00:Z","depth":0,"parameterNumber":3,"parameterNumberName":"V-component_of_WINDS"},"data":[0,0,0,0,0,0,0,0,0,0,0,0,0,0,0,0,0,0,0,0,0,0,0,0,0,0,0,0,0,0,0,0,0,0,0,0,0,0,0,0,0,0,0,0,0,0,0,0,0,0,0,0,0,0,0,0,0,0,-6.6578,-6.6579,0,-6.6711,-6.6712,-6.6714,-6.6659,-6.6655,-6.6652,-6.6649,-6.6781,-6.6787,-6.6794,0,0,0,0,0,0,0,0,0,0,0,0,0,-6.6273,-6.6279,-6.6578,-6.658,-6.6581,-6.6711,-6.6713,-6.6714,-6.6659,-6.6655,-6.6651,-6.6648,-6.6779,-6.6787,-6.6794,0,0,0,0,0,0,0,0,0,0,0,0,0,-6.6406,-6.6281,-6.6578,-6.6569,-6.657,-6.671,-6.6713,-6.6715,-6.666,-6.6655,-6.665,-6.6646,-6.6776,-6.6786,-6.6795,-6.695,0,0,-6.6825,-6.6829,0,0,0,0,0,0,0,0,-6.6398,-6.6417,-6.6569,-6.657,-6.6571,-6.6663,-6.6653,-6.6794,-6.6661,-6.6626,-6.6649,-6.6644,-6.6746,-6.6757,-6.6793,-6.6957,-6.6962,-6.6826,-6.6832,-6.6836,-6.6839,0,0,0,0,0,0,0,-6.6389,-6.6411,-6.663,-6.6571,-6.6573,-6.6558,-6.6572,-6.668,-6.671,-6.6628,-6.6625,-6.6641,-6.6745,-6.6784,-6.6795,-6.6964,-6.6826,-6.6834,-6.684,-6.6844,-6.7263,-6.7268,0,0,0,0,0,0,-6.638,-6.6404,-6.6626,-6.6634,-6.6471,-6.6567,-6.6583,-6.6639,-6.6709,-6.6715,-6.6645,-6.6638,-6.6769,-6.6784,-6.68,-6.6988,-6.6836,-6.6845,-6.6851,-6.7258,-6.7265,-6.727,0,0,0,0,0,0,-6.6374,-6.6401,-6.6621,-6.6518,-6.6545,-6.6578,-6.6641,-6.6644,-6.6682,-6.6722,-6.6727,-6.6679,-6.6766,-6.6786,-6.6914,-6.6991,-6.6849,-6.6858,-6.7252,-6.726,-6.7267,-6.7363,0,0,0,0,0,0,-6.6365,-6.6399,-6.6459,-6.652,-6.6551,-6.6734,-6.6646,-6.665,-6.6699,-6.6692,-6.6755,-6.6761,-6.6764,-6.69,-6.6924,-6.7002,-6.6866,-6.7245,-6.7256,-6.7265,-6.7353,-6.7373,-6.7391,0,0,0,0,0,-6.6355,-6.6479,-6.6462,-6.6489,-6.6627,-6.6739,-6.6756,-6.6758,-6.6706,-6.6766,-6.6792,-6.6759,-6.6979,-6.6914,-6.694,-6.7022,-6.724,-6.7253,-6.7264,-6.7345,-6.737,-6.739,0,0,0,0,0,0,-6.6424,-6.6487,-6.6469,-6.6616,-6.6673,-6.6729,-6.6805,-6.6784,-6.6855,-6.6845,-6.6843,-6.6858,-6.6991,-6.7018,-6.6945,-6.7177,-6.7101,-6.7119,-6.7154,-6.7177,-6.7196,-6.7187,-6.6874,0,0,0,0,0,-6.6457,-6.6544,-6.6593,-6.6719,-6.6748,-6.6772,-6.6821,-6.6818,-6.6876,-6.6899,-6.6934,-6.699,-6.7072,-6.7126,-6.7203,-6.7357,-6.737,-6.7426,-6.7445,-6.746,-6.7476,-6.7561,-6.7587,-6.731,-6.731,-6.7309,0,0,-6.6524,-6.657,-6.6624,-6.6734,-6.6777,-6.6867,-6.6792,-6.689,-6.6956,-6.6913,-6.7037,-6.7065,-6.7127,-6.727,-6.7334,-6.7297,-6.7555,-6.7475,-6.7487,-6.7495,-6.7576,-6.7602,-6.7625,-6.7318,-6.7316,-6.7315,0,0,-6.6695,-6.6737,-6.6848,-6.6893,-6.6961,-6.6976,-6.7003,-6.7063,-6.708,-6.7205,-6.7175,-6.7253,-6.7394,-6.744,-6.7482,-6.7672,-6.7645,-6.7697,-6.7795,-6.7878,-6.79,-6.7919,-6.7988,-6.8013,-6.7712,-6.7712,-6.7713,0,-6.677,-6.6906,-6.6906,-6.7008,-6.7057,-6.7024,-6.7136,-6.7179,-6.7268,-6.7303,-6.726,-6.7438,-6.7477,-6.7631,-6.7678,-6.7712,-6.7742,-6.769,-6.7897,-6.7916,-6.7934,-6.8,-6.8026,-6.7719,-6.7718,-6.7717,-6.7717,0,-6.6996,-6.709,-6.7171,-6.7261,-6.7319,-6.7424,-6.7441,-6.75,-6.7492,-6.7511,-6.7639,-6.7686,-6.7773,-6.7809,-6.7801,-6.7962,-6.7937,-6.7896,-6.7821,-6.7967,-6.8029,-6.8054,-6.7727,-6.7725,-6.7723,-6.7722,0,0,-6.7214,-6.7303,-6.7333,-6.7374,-6.7447,-6.7519,-6.7623,-6.771,-6.7762,-6.7823,-6.7911,-6.8032,-6.7995,-6.8043,-6.804,-6.8113,-6.8262,-6.8063,-6.8064,-6.81,-6.8444,-6.8476,-6.8505,-6.8244,-6.8249,-6.8253,-6.8439,0,-6.7391,-6.7576,-6.7581,-6.775,-6.7838,-6.7808,-6.7899,-6.7953,-6.7974,-6.8051,-6.8073,-6.8159,-6.8103,-6.8132,-6.8203,-6.8229,-6.8331,-6.8215,-6.8326,-6.833,-6.8313,-6.8537,-6.8571,-6.8745,-6.8463,-6.8467,-6.847,0,-6.7622,-6.7695,-6.7874,-6.7936,-6.7972,-6.8054,-6.8136,-6.8209,-6.827,-6.828,-6.8335,-6.8321,-6.8427,-6.8348,-6.8494,-6.8416,-6.8461,-6.8481,-6.8487,-6.8499,-6.841,-6.8556,-6.88,-6.8827,-6.8508,-6.8505,-6.8502,0,-6.7766,-6.7907,-6.8033,-6.8069,-6.8143,-6.8202,-6.8236,-6.8292,-6.8344,-6.8414,-6.8449,-6.853,-6.8574,-6.8637,-6.8646,-6.8587,-6.8793,-6.8714,-6.8805,-6.8805,-6.8851,-6.8848,-6.9107,-6.8878,-6.8877,-6.8877,-6.8876,0,-6.7964,-6.8075,-6.8099,-6.8177,-6.83,-6.8304,-6.8426,-6.8454,-6.8505,-6.8587,-6.8564,-6.8642,-6.8648,-6.8728,-6.8735,-6.8856,-6.8875,-6.8887,-6.8888,-6.889,-6.8889,-6.8921,-6.8909,-6.8884,-6.8882,-6.8881,-6.888,0,-6.8145,-6.8166,-6.8301,-6.8362,-6.838,-6.8468,-6.8519,-6.8593,-6.8612,-6.8717,-6.8741,-6.8771,-6.8864,-6.8879,-6.8986,-6.8991,-6.9137,-6.9124,-6.9118,-6.9117,-6.9208,-6.92,-6.9497,-6.9537,-6.928,-6.9282,-6.9284,0,-6.8272,-6.8357,-6.8427,-6.8482,-6.8519,-6.8606,-6.8661,-6.8667,-6.8725,-6.8801,-6.8866,-6.8957,-6.903,-6.9179,-6.921,-6.9292,-6.9283,-6.9381,-6.9295,-6.9295,-6.9286,-6.9282,-6.9291,-6.9398,-6.9401,-6.9403,-6.9405,0,-6.8494,-6.85,-6.858,-6.8665,-6.8731,-6.8798,-6.886,-6.8906,-6.892,-6.8986,-6.9081,-6.9138,-6.925,-6.934,-6.9423,-6.9456,-6.9434,-6.9432,-6.9458,-6.9462,-6.9455,-6.9462,-6.9165,-6.9425,-6.9423,-6.9422,-6.9421,-6.942,-6.8653,-6.8728,-6.879,-6.8881,-6.8929,-6.8988,-6.9062,-6.9091,-6.9171,-6.9264,-6.9262,-6.9368,-6.9427,-6.9536,-6.9575,-6.9656,-6.9624,-6.9661,-6.9671,-6.968,-6.969,-6.9441,-6.9671,-6.967,-6.967,-6.9669,-6.9669,0,-6.8876,-6.8915,-6.8998,-6.9088,-6.9159,-6.9133,-6.9201,-6.9263,-6.9356,-6.9414,-6.9487,-6.9597,-6.9685,-6.9724,-6.981,-6.9868,-6.986,-6.9891,-6.9887,-6.9896,-6.9713,-6.9683,-6.9896,-6.9896,-6.9896,-6.9896,-6.9896,-6.9896,-6.9001,-6.9127,-6.9141,-6.9291,-6.9329,-6.9434,-6.9475,-6.953,-6.9576,-6.9701,-6.9775,-6.98,-6.985,-6.994,-7.002,-7.0029,-7.0062,-7.0098,-7.0103,-6.9931,-6.9908,-6.9886,-6.9858,-7.0105,-7.0105,-7.0279,-7.028,-7.0282]}]]